Winona, MN

1:38 AM CDT on May 27, 2017 (GMT -0500)
Winona Municipal-Conrad

Weather History for KONA - February, 2014

Change the Weather History Date:

Sunday, February 16, 2014

  Actual Average Record
Temperature  
Mean Temperature 17 °F -  
Max Temperature 24 °F 29 °F 50 °F (2011)
Min Temperature 10 °F 5 °F -12 °F (1973)
Degree Days  
Heating Degree Days 48    
Moisture  
Dew Point 11 °F    
Average Humidity 72    
Maximum Humidity 86    
Minimum Humidity 59    
Precipitation  
Precipitation 0.01 in - - ()
Sea Level Pressure  
Sea Level Pressure 30.15 in    
Wind  
Wind Speed 7 mph (ESE)    
Max Wind Speed 15 mph    
Max Gust Speed 20 mph    
Visibility 10 miles    
Events      
Averages and records for this station are not official NWS values.
T = Trace of Precipitation, MM = Missing Value Source: NWS Daily Summary

Daily Weather History Graph

Daily Weather History Graph

Search for Another Location

Airport or City:

Trip Planner

Search our weather history database for the weather conditions in past years. The results will help you decide how hot, cold, wet, or windy it might be!

Date:

Astronomy

Feb. 16, 2014 Rise Set
Actual Time 7:04 AM CST 5:37 PM CST
Civil Twilight 6:34 AM CST 6:07 PM CST
Nautical Twilight 6:01 AM CST 6:41 PM CST
Astronomical Twilight 5:27 AM CST 7:14 PM CST
Moon 7:40 PM CST (2/16) 7:29 AM CST (2/16)
Length of Visible Light 11h 32m
Length of Day
10h 33m
Full, 97% of the Moon is Illuminated
Feb 16
Full
Feb 22
Last Quarter
Mar 1
New
Mar 8
First Quarter
Mar 16
Full

Hourly Weather History & Observations

Time (CST) Temp. Windchill Dew Point Humidity Pressure Visibility Wind Dir Wind Speed Gust Speed Precip Events Conditions
12:19 AM 19.4 °F 7.2 °F 14.0 °F 80% 30.02 in 10.0 mi NW 11.5 mph - N/A   Overcast
12:39 AM 19.4 °F 7.2 °F 14.0 °F 80% 30.02 in 10.0 mi NNW 11.5 mph - N/A   Overcast
12:58 AM 19.4 °F 8.6 °F 14.0 °F 80% 30.02 in 10.0 mi NNW 9.2 mph - N/A   Overcast
1:19 AM 19.4 °F 7.9 °F 15.8 °F 86% 30.02 in 10.0 mi NNW 10.4 mph - N/A   Overcast
1:39 AM 19.4 °F 8.6 °F 15.8 °F 86% 30.02 in 10.0 mi NW 9.2 mph - N/A   Overcast
1:58 AM 19.4 °F 9.5 °F 15.8 °F 86% 30.02 in 10.0 mi NNW 8.1 mph - N/A   Overcast
2:19 AM 19.4 °F 10.4 °F 15.8 °F 86% 30.02 in 10.0 mi NW 6.9 mph - N/A   Overcast
2:39 AM 19.4 °F 10.4 °F 15.8 °F 86% 30.02 in 10.0 mi NW 6.9 mph - N/A   Overcast
2:58 AM 17.6 °F 9.3 °F 14.0 °F 86% 30.03 in 10.0 mi NW 5.8 mph - N/A   Overcast
3:19 AM 17.6 °F 7.3 °F 14.0 °F 86% 30.05 in 10.0 mi NW 8.1 mph - N/A   Overcast
3:38 AM 17.6 °F 7.3 °F 14.0 °F 86% 30.07 in 10.0 mi NW 8.1 mph - N/A   Overcast
3:59 AM 17.6 °F 7.3 °F 12.2 °F 79% 30.08 in 10.0 mi NW 8.1 mph - N/A   Overcast
4:19 AM 14.0 °F 3.9 °F 10.4 °F 86% 30.09 in 10.0 mi NW 6.9 mph - N/A   Scattered Clouds
4:39 AM 14.0 °F 3.9 °F 10.4 °F 86% 30.10 in 10.0 mi NW 6.9 mph - N/A   Clear
4:58 AM 14.0 °F 2.0 °F 10.4 °F 86% 30.12 in 10.0 mi NW 9.2 mph - N/A   Scattered Clouds
5:19 AM 15.8 °F 5.1 °F 12.2 °F 86% 30.14 in 10.0 mi NW 8.1 mph - N/A   Mostly Cloudy
5:39 AM 14.0 °F 5.1 °F 10.4 °F 86% 30.14 in 10.0 mi NNW 5.8 mph - N/A   Mostly Cloudy
5:58 AM 14.0 °F - 10.4 °F 86% 30.14 in 10.0 mi Calm Calm - N/A   Scattered Clouds
6:19 AM 12.2 °F 2.9 °F 8.6 °F 85% 30.14 in 10.0 mi NW 5.8 mph - N/A   Scattered Clouds
6:39 AM 12.2 °F 0.7 °F 8.6 °F 85% 30.15 in 10.0 mi NW 8.1 mph - N/A   Clear
6:58 AM 10.4 °F - 6.8 °F 85% 30.15 in 10.0 mi Calm Calm - N/A   Clear
7:19 AM 10.4 °F -1.5 °F 6.8 °F 85% 30.17 in 10.0 mi NNW 8.1 mph - N/A   Clear
7:39 AM 12.2 °F - 8.6 °F 85% 30.18 in 10.0 mi Calm Calm - N/A   Clear
7:58 AM 12.2 °F - 8.6 °F 85% 30.19 in 10.0 mi Calm Calm - N/A   Clear
8:19 AM 14.0 °F 6.5 °F 10.4 °F 86% 30.22 in 10.0 mi NW 4.6 mph - N/A   Clear
8:38 AM 14.0 °F 8.2 °F 8.6 °F 79% 30.23 in 10.0 mi NNW 3.5 mph - N/A   Clear
8:59 AM 14.0 °F 8.2 °F 8.6 °F 79% 30.24 in 10.0 mi North 3.5 mph - N/A   Clear
9:19 AM 14.0 °F - 6.8 °F 73% 30.25 in 10.0 mi Calm Calm - N/A   Clear
9:38 AM 15.8 °F 10.2 °F 6.8 °F 68% 30.25 in 10.0 mi NNW 3.5 mph - N/A   Clear
9:58 AM 17.6 °F - 8.6 °F 68% 30.24 in 10.0 mi Calm Calm - N/A   Clear
10:19 AM 17.6 °F - 8.6 °F 68% 30.24 in 10.0 mi Calm Calm - N/A   Clear
10:38 AM 17.6 °F - 8.6 °F 68% 30.24 in 10.0 mi Calm Calm - N/A   Clear
10:58 AM 17.6 °F - 8.6 °F 68% 30.24 in 10.0 mi Calm Calm - N/A   Clear
11:19 AM 17.6 °F - 6.8 °F 63% 30.25 in 10.0 mi Calm Calm - N/A   Clear
11:38 AM 19.4 °F - 8.6 °F 63% 30.24 in 10.0 mi Calm Calm - N/A   Clear
11:58 AM 19.4 °F - 8.6 °F 63% 30.24 in 10.0 mi Calm Calm - N/A   Clear
12:19 PM 19.4 °F - 8.6 °F 63% 30.23 in 10.0 mi Calm Calm - 0.01 in   Clear
12:38 PM 19.4 °F - 8.6 °F 63% 30.22 in 10.0 mi Calm Calm - 0.01 in   Clear
12:58 PM 19.4 °F 14.3 °F 8.6 °F 63% 30.22 in 10.0 mi SE 3.5 mph - N/A   Clear
1:19 PM 19.4 °F 12.8 °F 8.6 °F 63% 30.21 in 10.0 mi SSE 4.6 mph - N/A   Clear
1:38 PM 19.4 °F 10.4 °F 8.6 °F 63% 30.20 in 10.0 mi SE 6.9 mph - N/A   Clear
1:58 PM 21.2 °F 13.6 °F 10.4 °F 63% 30.19 in 10.0 mi SE 5.8 mph - N/A   Clear
2:19 PM 23.0 °F 14.7 °F 10.4 °F 59% 30.19 in 10.0 mi SE 6.9 mph - N/A   Clear
2:38 PM 23.0 °F 13.9 °F 10.4 °F 59% 30.18 in 10.0 mi SE 8.1 mph - N/A   Clear
2:58 PM 21.2 °F 11.7 °F 10.4 °F 63% 30.19 in 10.0 mi SE 8.1 mph - N/A   Clear
3:19 PM 23.0 °F 13.1 °F 10.4 °F 59% 30.18 in 10.0 mi SE 9.2 mph - N/A   Clear
3:38 PM 23.0 °F 12.4 °F 10.4 °F 59% 30.17 in 10.0 mi SE 10.4 mph - N/A   Clear
3:58 PM 23.0 °F 14.7 °F 10.4 °F 59% 30.18 in 10.0 mi SE 6.9 mph - N/A   Clear
4:19 PM 23.0 °F 14.7 °F 10.4 °F 59% 30.17 in 10.0 mi SE 6.9 mph - N/A   Clear
4:38 PM 23.0 °F 14.7 °F 10.4 °F 59% 30.17 in 10.0 mi SE 6.9 mph - N/A   Clear
4:58 PM 21.2 °F 16.4 °F 10.4 °F 63% 30.18 in 10.0 mi SE 3.5 mph - N/A   Clear
5:19 PM 21.2 °F 12.6 °F 12.2 °F 68% 30.17 in 10.0 mi SE 6.9 mph - N/A   Clear
5:38 PM 23.0 °F 14.7 °F 12.2 °F 63% 30.17 in 10.0 mi SE 6.9 mph - N/A   Clear
5:59 PM 21.2 °F 13.6 °F 12.2 °F 68% 30.17 in 10.0 mi SE 5.8 mph - N/A   Clear
6:19 PM 21.2 °F 13.6 °F 12.2 °F 68% 30.18 in 10.0 mi SE 5.8 mph - N/A   Clear
6:38 PM 21.2 °F 13.6 °F 12.2 °F 68% 30.17 in 10.0 mi SE 5.8 mph - N/A   Clear
6:59 PM 21.2 °F 13.6 °F 14.0 °F 74% 30.18 in 10.0 mi SE 5.8 mph - N/A   Scattered Clouds
7:19 PM 23.0 °F 15.8 °F 14.0 °F 68% 30.18 in 10.0 mi SE 5.8 mph - N/A   Scattered Clouds
7:38 PM 23.0 °F 13.1 °F 12.2 °F 63% 30.16 in 10.0 mi ESE 9.2 mph - N/A   Mostly Cloudy
7:59 PM 23.0 °F 13.9 °F 12.2 °F 63% 30.16 in 10.0 mi ESE 8.1 mph - N/A   Mostly Cloudy
8:19 PM 23.0 °F 13.9 °F 14.0 °F 68% 30.14 in 10.0 mi SE 8.1 mph - N/A   Scattered Clouds
8:38 PM 23.0 °F 13.9 °F 14.0 °F 68% 30.15 in 10.0 mi SE 8.1 mph - N/A   Mostly Cloudy
8:59 PM 23.0 °F 13.9 °F 14.0 °F 68% 30.14 in 10.0 mi SE 8.1 mph - N/A   Mostly Cloudy
9:19 PM 24.8 °F 16.1 °F 14.0 °F 64% 30.14 in 10.0 mi SSE 8.1 mph - N/A   Mostly Cloudy
9:38 PM 24.8 °F 13.4 °F 14.0 °F 64% 30.12 in 10.0 mi SSE 12.7 mph 18.4 mph N/A   Scattered Clouds
9:59 PM 24.8 °F 12.4 °F 14.0 °F 64% 30.12 in 10.0 mi SE 15.0 mph - N/A   Clear
10:18 PM 23.0 °F 11.7 °F 12.2 °F 63% 30.14 in 10.0 mi SSE 11.5 mph - N/A   Scattered Clouds
10:39 PM 23.0 °F 10.6 °F 12.2 °F 63% 30.13 in 10.0 mi SSE 13.8 mph 19.6 mph N/A   Mostly Cloudy
10:59 PM 23.0 °F 10.6 °F 12.2 °F 63% 30.11 in 10.0 mi SE 13.8 mph - N/A   Overcast
11:18 PM 23.0 °F 12.4 °F 12.2 °F 63% 30.12 in 10.0 mi SSE 10.4 mph 18.4 mph N/A   Mostly Cloudy
11:39 PM 23.0 °F 13.1 °F 12.2 °F 63% 30.12 in 10.0 mi SE 9.2 mph 17.3 mph N/A   Overcast
11:59 PM 23.0 °F 11.1 °F 12.2 °F 63% 30.12 in 10.0 mi SSE 12.7 mph 17.3 mph N/A   Mostly Cloudy